This is the latest recevied weather packets stored in our database for station/object KGRR-WX. If no packets are shown the sender has not sent any weather packets the latest 10 day(s).
| Time | Temp. | Humidity | Pressure | Rain* | Wind** | Luminosity | Snow |
|---|---|---|---|---|---|---|---|
| 1777285820 | 7.22° C | 82% | 989 hPa | 0 mm | - | - | - |
| 1777284910 | 7.22° C | 82% | 989 hPa | 0 mm | - | - | - |
| 1777284027 | 7.22° C | 82% | 989 hPa | 0 mm | - | - | - |
| 1777283107 | 7.22° C | 75% | 989 hPa | 0 mm | - | - | - |
| 1777282221 | 7.22° C | 78% | 989.2 hPa | 0 mm | - | - | - |
| 1777281310 | 7.22° C | 78% | 989.2 hPa | 0 mm | - | - | - |
| 1777280419 | 7.22° C | 78% | 989.2 hPa | 0 mm | - | - | - |
| 1777279510 | 7.22° C | 72% | 988.5 hPa | 0 mm | - | - | - |
| 1777278621 | 7.22° C | 72% | 988.3 hPa | 0 mm | - | - | - |
| 1777277710 | 7.22° C | 72% | 988.2 hPa | 0 mm | - | - | - |
| 1777276824 | 7.22° C | 76% | 988 hPa | 0 mm | - | - | - |
| 1777275908 | 7.78° C | 70% | 988.5 hPa | 0 mm | - | - | - |
| 1777275021 | 7.78° C | 70% | 988.5 hPa | 0 mm | - | - | - |
| 1777274106 | 7.78° C | 70% | 988.5 hPa | 0 mm | - | - | - |
| 1777273226 | 7.78° C | 70% | 988.5 hPa | 0 mm | - | - | - |
| 1777272310 | 8.33° C | 66% | 988.3 hPa | 0 mm | - | - | - |
| 1777271422 | 8.33° C | 71% | 988.6 hPa | 0 mm | - | - | - |
| 1777270510 | 8.33° C | 71% | 988.6 hPa | 0 mm | - | - | - |
| 1777269624 | 8.89° C | 71% | 988.6 hPa | 0 mm | - | - | - |
| 1777268711 | 8.89° C | 69% | 988.2 hPa | 0 mm | - | - | - |
| 1777267821 | 8.89° C | 69% | 988.2 hPa | 0 mm | - | - | - |
| 1777266910 | 9.44° C | 69% | 988.2 hPa | 0 mm | - | - | - |
| 1777266026 | 9.44° C | 69% | 988.2 hPa | 0 mm | - | - | - |
| 1777265110 | 10° C | 60% | 987.7 hPa | 0 mm | - | - | - |
| 1777264221 | 10° C | 65% | 987.7 hPa | 0 mm | - | - | - |
* Rain latest hour (hover to see other rain measurements)
** Current wind speed in m/s (hover to see current wind gust speed)